Flag for U.S.A. Weather past 2 weeks in Hereford, Texas, U.S.A.

Now
77 °F

Warm.


Feels Like: 78 °F
Forecast: 68 / 88 °F
Wind: 7 mph from South

Location: Clovis Municipal

Current Time: Aug 22, 2014 at 12:03:20 AM

Latest Report: Aug 21, 2014 at 11:35 PM


Visibility: 10 mi

Pressure: 30.09 "Hg

Humidity: 44%

Dew point: 54 °F

Location of HerefordLocation

Historic Weather in Hereford — Graph

°F

Hereford temperature yesterday

Maximum temperature yesterday: 95 °F (at 4:15 PM)
Minimum temperature yesterday: 63 °F (at 6:35 AM)
Average temperature yesterday: 80 °F

Past Weeks' High & Low Weather Summary

 TemperatureHumidityPressure
High97 °F (Aug 7, 1:35 PM)94% (Aug 11, 6:55 AM)30.38 "Hg (Aug 11, 6:55 AM)
Low59 °F (Aug 12, 7:35 AM)17% (Aug 18, 4:15 PM)29.91 "Hg (Aug 19, 6:15 PM)
Average76 °F56%30.14 "Hg
* Reported Aug 6 10:55 PM — Aug 21 10:55 PM, Hereford, Weather by CustomWeather, © 2014

Note: Actual official high and low records may vary slightly from our data, if they occured in-between our weather recording intervals... More about our weather records

Advertising

Hereford weather history for previous 24 hours

 ConditionsComfort  
Time TempWeatherWind HumidityBarometerVisibility
10:55 PM
Aug 21
79 °FPleasantly warm.7 mph39%30.09 "Hg10 mi
10:35 PM81 °FPleasantly warm.8 mph37%30.08 "Hg10 mi
10:15 PM81 °FPleasantly warm.8 mph37%30.07 "Hg10 mi
9:55 PM79 °FWarm.5 mph42%30.06 "Hg10 mi
9:35 PM81 °FPleasantly warm.5 mph39%30.05 "Hg10 mi
9:15 PM82 °FPleasantly warm.9 mph35%30.05 "Hg10 mi
8:55 PM86 °FPleasantly warm.10 mph31%30.03 "Hg10 mi
8:35 PM86 °FPleasantly warm.13 mph31%30.03 "Hg10 mi
8:15 PM88 °FPleasantly warm.6 mph27%30.03 "Hg10 mi
7:55 PM90 °FHot.7 mph26%30.03 "Hg10 mi
7:35 PM91 °FHot.9 mph23%30.02 "Hg10 mi
7:15 PM93 °FExtremely hot.9 mph21%30.02 "Hg10 mi
6:55 PM91 °FHot.10 mph23%30.02 "Hg10 mi
6:35 PM91 °FHot.9 mph23%30.02 "Hg10 mi
6:15 PM93 °FExtremely hot.10 mph23%30.02 "Hg10 mi
5:55 PM93 °FExtremely hot.8 mph21%30.02 "Hg10 mi
5:35 PM93 °FExtremely hot.13 mph21%30.02 "Hg10 mi
5:15 PM95 °FExtremely hot.10 mph20%30.02 "Hg10 mi
4:55 PM95 °FExtremely hot.7 mph20%30.02 "Hg10 mi
4:35 PM95 °FExtremely hot.9 mph22%30.02 "Hg10 mi
4:15 PM95 °FExtremely hot.10 mph22%30.03 "Hg10 mi
3:55 PM93 °FExtremely hot.3 mph23%30.03 "Hg10 mi
3:35 PM93 °FExtremely hot.7 mph24%30.04 "Hg10 mi
3:15 PM93 °FExtremely hot.9 mph24%30.04 "Hg10 mi
2:55 PM93 °FExtremely hot.8 mph24%30.05 "Hg10 mi
2:35 PM93 °FExtremely hot.9 mph24%30.05 "Hg10 mi
2:15 PM91 °FHot.13 mph26%30.05 "Hg10 mi
1:55 PM91 °FHot.No wind26%30.06 "Hg10 mi
1:35 PM91 °FHot.9 mph28%30.06 "Hg10 mi
12:55 PM90 °FHot.12 mph33%30.08 "Hg10 mi
12:35 PM88 °FPleasantly warm.10 mph35%30.08 "Hg10 mi
12:15 PM86 °FWarm.12 mph43%30.09 "Hg10 mi
11:55 AM84 °FWarm.9 mph45%30.09 "Hg10 mi
11:35 AM82 °FWarm.8 mph48%30.09 "Hg10 mi
11:15 AM82 °FWarm.9 mph48%30.09 "Hg10 mi
10:55 AM81 °FWarm.10 mph51%30.09 "Hg10 mi
10:35 AM79 °FWarm.10 mph54%30.09 "Hg10 mi
10:15 AM77 °FWarm.10 mph61%30.09 "Hg10 mi
9:55 AM75 °FMild.9 mph65%30.09 "Hg10 mi
9:35 AM73 °FMild.10 mph69%30.09 "Hg10 mi
9:15 AM72 °FMild.10 mph69%30.09 "Hg10 mi
8:55 AM70 °FMild.9 mph73%30.08 "Hg10 mi
8:35 AM70 °FMild.7 mph73%30.08 "Hg10 mi
8:15 AM66 °FMild.6 mph83%30.08 "Hg10 mi
7:55 AM64 °FMild.6 mph88%30.07 "Hg10 mi
7:35 AM63 °FMild.7 mph88%30.07 "Hg10 mi
6:55 AM63 °FMild.5 mph88%30.06 "Hg10 mi
6:35 AM63 °FMild.7 mph83%30.06 "Hg10 mi
6:15 AM64 °FMild.6 mph83%30.06 "Hg10 mi
5:55 AM64 °FMild.5 mph83%30.06 "Hg10 mi
5:35 AM64 °FMild.6 mph83%30.05 "Hg10 mi
5:15 AM64 °FMild.7 mph83%30.05 "Hg10 mi
4:55 AM66 °FMild.8 mph83%30.05 "Hg10 mi
4:35 AM68 °FMild.10 mph78%30.03 "Hg10 mi
4:15 AM66 °FMild.8 mph83%30.03 "Hg10 mi
3:55 AM68 °FMild.8 mph78%30.03 "Hg10 mi
3:35 AM68 °FMild.8 mph78%30.03 "Hg10 mi
3:15 AM68 °FMild.9 mph78%30.03 "Hg10 mi
2:55 AM70 °FMild.9 mph73%30.03 "Hg10 mi
2:35 AM70 °FMild.10 mph73%30.03 "Hg10 mi
2:15 AM72 °FMild.13 mph69%30.04 "Hg10 mi
1:55 AM72 °FMild.13 mph69%30.04 "Hg10 mi
1:35 AM73 °FMild.13 mph65%30.05 "Hg10 mi
1:15 AM73 °FMild.16 mph65%30.05 "Hg10 mi
12:55 AM73 °FMild.12 mph65%30.04 "Hg10 mi
12:35 AM75 °FMild.15 mph61%30.04 "Hg10 mi
12:15 AM75 °FMild.17 mph61%30.04 "Hg10 mi
Weather by CustomWeather, © 2014

See weather overviewHow to use our weather pages